Погода в Малой Зоркальцевой

Россия / Тюменская область     58°24′56″N   68°23′53″E
темп.,
°C
ветер,
м/с
пор.,
м/с
влажн.,
%
обл.,
%
осадки,
мм/ч
давл.,
гПа
погр.,
м
9 марта, вт
вт923:00−13ю4994100 0.1 1007332
02:00−13ю499498 0.1 1005353
05:00−10ю5119199 0.5 1004578
08:00−8ююз61292100 0.2 1003635
11:00−6юз61087100 0.3 1003876
14:00−4юз5883100 0.1 1003850
17:00−5зюз3694100 0.4 1003513
20:00−8сз4992100 0.1 1005375
10 марта, ср
ср1023:00−16з339782 0.1 100969
02:00−20зсз239955 0.0 101128
05:00−22ссз1110055 0.0 101220
08:00−21св229896 0.0 101237
11:00−14всв238798 0.0 1011255
14:00−11св3488100 0.0 1009404
17:00−11св3690100 0.0 1007458
20:00−14св3894100 0.0 1007321
11 марта, чт
чт1123:00−15св4895100 0.1 1006286
02:00−17ссв4895100 0.2 1005333
05:00−18ссв4996100 0.5 1005347
08:00−20ссв4897100 0.4 1006311
11:00−19ссв4895100 0.8 1006345
14:00−18с5894100 0.4 1006450
17:00−20с5895100 0.8 1006457
20:00−23с4897100 0.4 1008387
12 марта, пт
пт1223:00−25ссз4797100 0.6 1009319
02:00−26ссз3795100 0.1 1010301
05:00−28сз369698 0.1 1011203
08:00−31сз259633 0.0 1013122
11:00−25з238817 0.0 1014274
14:00−20юз36830 0.0 1014371
17:00−18ююз59866 0.0 1014444
20:00−19ююз499593 0.0 1014227
13 марта, сб
сб1323:00−18ююз4109790 0.1 1014225
02:00−16юз499897 0.1 1014211
05:00−15юз499697 0.1 1015227
08:00−16юз499686 0.0 1016248
11:00−11юз489391 0.0 1017363
14:00−8юз5991100 0.0 1018539
17:00−7юз5989100 0.1 1018706
20:00−8юз51094100 0.1 1018314